Location: Vidojevica
(43.1414°N, 21.5558°E)
Time: 12:59:31
(UTC+01:00)

Tiangong 2 - Visible Passes

Search period start: 23 January 2019 00:00
Search period end: 02 February 2019 00:00
Orbit: 380 x 392 km, 42.8° (Epoch: 23 January)

Date Brightness Start Highest point End Pass type
(mag) Time Alt. Az. Time Alt. Az. Time Alt. Az.
23 Jan 3.4 04:36:27 25° E 04:36:27 25° E 04:37:58 10° E visible
23 Jan 1.4 06:08:42 12° W 06:11:31 59° SSW 06:14:40 10° ESE visible
24 Jan 1.0 05:12:25 74° SSW 05:12:31 75° S 05:15:43 10° ESE visible
25 Jan 4.4 04:16:08 14° E 04:16:08 14° E 04:16:41 10° E visible
25 Jan 1.9 05:48:22 20° W 05:50:09 40° SSW 05:53:11 10° SE visible
26 Jan 2.3 04:52:07 38° SE 04:52:07 38° SE 04:54:20 10° ESE visible
27 Jan 2.4 05:28:08 25° SW 05:28:43 26° SSW 05:31:27 10° SSE visible
28 Jan 3.8 04:31:57 16° SE 04:31:57 16° SE 04:32:48 10° SE visible
29 Jan 3.4 05:08:06 15° S 05:08:06 15° S 05:09:18 10° S visible
